Powrót do katalogu

DMSP 5D-2 F13

USA 109

AktywnyPogodaSSO
NORAD 23533·PAYLOAD·🇺🇸 United States

Wystrzelony Mar 24, 1995 z Vandenberg Space Force Base

Loading…

Następne Przeloty (najbliższe 24 godziny)

TLE

ŚwieżeSource: Space-Track

Epoka: Sep 14, 2026, 23:31 UTC

1 23533U 95015A   26257.98042307  .00000033  00000-0  38524-4 0  9993
2 23533  98.8039 271.0209 0005658 254.7011 138.4481 14.17043379625911

Śledź DMSP 5D-2 F13 w czasie rzeczywistym z AllMySat

Download on the App Store